Location: Champs
(48.8539°N, 2.6040°E)
Time: 18:47:46
(UTC+00:00)

Cosmos 2056 Rocket - Pass Details

Date: 04 June 2022
Orbit: 741 x 801 km, 74.0° (Epoch: 29 June)

Event Time Altitude Azimuth Distance (km) Brightness Sun altitude
Exits shadow 01:35:57 19° 179° (S) 1,745 4.8 -14.8°
Maximum altitude 01:39:33 57° 107° (ESE) 913 3.9 -14.5°
Drops below altitude 10° 01:44:46 10° 30° (NNE) 2,350 7.5 -14.1°
Sets 01:47:13 0° 27° (NNE) 3,292 8.8 -13.9°
